Location: Pasarilla del Rebollar
(40.6790°N, 5.0062°W)
Time: 12:09:23
(UTC+00:00)

Meteor 2-20 Rocket - Pass Details

Date: 22 April 2026
Orbit: 871 x 1024 km, 82.5° (Epoch: 16 May)

Event Time Altitude Azimuth Distance (km) Brightness Sun altitude
Exits shadow 03:33:06 37° 217° (SW) 1,454 4.9 -20.6°
Maximum altitude 03:35:29 60° 280° (W) 1,074 4.5 -20.3°
Drops below altitude 10° 03:41:24 10° 0° (N) 2,623 7.2 -19.4°
Sets 03:43:53 0° 5° (N) 3,549 8.0 -19.0°
